Theta_e
284 285 286 288 289 291 293 294 295 296 297 299 301 301 303 302 305 306 304 304 306 306 307 310 312 315 316 316 316 317 314 316 315 309 306 307 303 301 298 300 299 300 300
284 285 286 287 289 289 290 293 295 297 298 298 298 299 302 305 306 307 307 307 307 307 309 312 313 312 312 314 314 314 313 314 310 308 305 300 299 298 296 296 298 298 298
282 283 285 286 286 287 289 292 294 296 296 297 298 299 300 302 303 305 306 307 308 309 309 309 309 307 309 309 309 308 308 306 306 307 306 300 297 296 294 295 297 295 287
281 282 283 284 285 286 287 289 290 291 293 294 295 297 297 298 300 302 304 304 305 304 303 304 303 304 304 304 304 304 304 304 305 304 301 299 297 295 294 290 285 285 284
283 283 283 284 285 285 286 287 288 290 290 292 293 294 295 296 298 300 300 301 301 301 301 300 298 299 296 295 294 295 291 292 294 298 300 297 292 287 284 284 284 285 285
283 283 283 283 283 284 285 285 287 288 291 291 291 293 294 295 295 297 297 297 296 294 292 292 292 289 288 288 288 288 288 288 288 287 287 285 285 284 284 285 285 285 285
285 285 285 285 285 286 286 287 288 288 288 289 289 289 289 286 286 287 288 287 287 287 287 287 287 287 287 287 287 287 287 286 286 286 286 286 286 285 285 285 284 284 284
287 288 287 287 287 288 288 289 288 287 286 285 286 286 286 285 285 285 285 286 286 286 286 286 287 287 287 287 287 287 287 287 287 286 286 285 285 284 284 284 284 284 284
282 282 282 282 283 284 285 283 283 283 284 284 284 285 285 285 285 285 285 286 287 287 287 287 287 288 288 288 287 288 288 287 287 287 286 286 285 285 285 285 283 282 281
283 283 283 285 283 283 283 283 283 283 284 284 284 285 285 285 286 286 286 287 287 288 288 288 288 289 289 289 288 288 288 288 287 287 287 286 285 285 284 283 281 280 280
283 284 284 284 284 284 284 285 285 285 285 285 286 286 286 286 287 287 288 288 288 289 289 289 289 289 289 289 288 288 288 288 287 286 285 285 285 284 283 283 282 282 280
284 284 284 284 284 284 285 285 285 286 286 286 287 287 287 287 288 288 288 288 288 288 289 289 289 289 289 289 289 288 288 288 288 287 286 285 284 284 284 283 282 281 281
285 285 285 285 285 285 285 286 286 287 287 287 287 287 287 288 288 288 289 288 288 288 287 287 287 287 287 287 287 287 286 286 285 284 283 283 283 284 284 283 283 282 281
285 285 285 285 285 285 285 286 286 287 287 288 288 288 289 289 289 289 288 288 288 287 287 287 287 287 286 286 285 284 284 283 283 283 283 282 281 281 281 280 280 280 280
285 285 285 285 285 285 285 285 285 285 285 285 285 285 286 287 286 288 288 288 288 287 287 287 286 286 285 285 285 284 284 283 283 282 281 281 280 279 279 278 277 277 277
285 286 286 285 285 285 285 285 286 286 285 286 286 287 286 287 286 286 286 285 284 284 284 285 286 286 286 285 285 284 283 282 282 281 280 280 279 279 278 277 276 276 276
286 286 286 285 285 286 286 286 286 285 285 285 285 285 285 285 285 284 284 284 284 283 284 285 286 286 286 285 284 284 283 282 281 280 279 279 278 278 277 276 276 275 275
287 286 286 285 285 285 285 285 285 285 285 285 285 285 285 284 284 284 283 282 282 282 283 284 284 284 284 284 283 282 282 281 280 279 279 278 278 277 276 276 275 275 274
287 287 287 286 286 285 285 284 284 284 285 286 286 285 285 284 283 283 282 281 282 283 283 283 283 282 282 282 281 281 280 280 279 279 279 278 277 276 275 275 274 274 273
287 287 287 286 285 285 285 284 285 285 285 285 285 286 285 284 283 283 282 281 281 281 282 281 281 281 281 280 279 279 279 279 279 279 280 279 276 275 274 274 273 273 272
287 287 286 286 286 285 285 285 284 284 284 284 284 284 283 283 283 282 282 282 282 281 280 280 280 279 279 279 279 278 278 278 278 279 276 275 275 274 274 272 272 272 273
287 286 286 285 285 285 285 284 283 283 283 282 283 283 282 281 281 281 281 281 281 280 280 280 279 279 279 278 278 277 277 278 277 276 275 275 274 273 273 272 272 272 272
287 286 285 285 284 284 283 283 282 282 281 281 281 281 281 280 280 280 280 280 279 279 279 278 278 277 277 277 276 276 276 276 275 274 273 273 273 272 272 272 272 272 272
287 286 285 284 283 282 282 281 281 280 280 279 279 279 279 279 279 278 278 278 277 277 277 277 277 277 276 275 275 275 274 274 273 273 272 272 271 271 271 271 272 272 272
287 285 283 283 282 282 281 281 280 280 279 279 278 277 277 277 277 277 277 276 276 275 275 275 274 274 275 274 274 273 273 272 272 272 272 271 271 271 271 272 272 272 271
285 284 283 282 281 281 280 280 279 278 277 276 276 275 275 275 275 275 274 274 273 273 273 273 273 272 272 272 272 272 272 272 272 272 271 271 272 272 272 272 271 270 271
Wind_Speed
10 9 6 4 4 6 9 7 8 9 8 7 11 11 13 13 15 13 13 16 19 20 25 26 21 22 20 21 21 24 25 22 24 23 26 27 28 28 29 27 26 23 23
8 6 4 2 2 4 4 6 8 9 8 9 10 11 11 14 12 12 13 16 17 17 17 16 17 17 17 16 16 20 20 22 23 22 21 23 24 23 24 24 21 20 18
6 5 2 0 2 3 4 6 7 6 8 8 9 11 12 16 18 18 18 17 16 15 14 13 13 10 11 11 13 13 14 16 17 13 18 20 20 21 19 17 15 13 12
6 4 4 3 3 4 5 6 7 7 8 8 10 12 14 16 17 18 17 17 18 16 15 14 14 11 10 10 10 11 10 10 9 9 12 15 16 16 13 10 11 10 12
7 7 7 6 6 6 7 8 10 12 15 16 18 19 20 20 20 19 19 19 19 20 19 18 18 17 17 16 13 13 11 10 11 12 12 13 13 12 11 10 10 11 13
11 12 11 11 11 12 14 15 17 18 20 24 25 25 24 24 23 20 20 21 22 21 22 21 19 17 17 15 13 13 13 10 10 10 11 10 9 8 8 8 10 12 12
14 15 15 15 17 18 18 20 23 23 22 23 24 24 27 25 22 20 18 19 19 19 18 18 16 15 13 12 11 10 10 9 7 6 5 5 6 7 8 10 12 14 15
18 20 21 20 19 20 20 21 22 23 21 21 21 20 20 20 19 17 15 15 15 15 14 13 12 12 11 9 8 7 6 4 4 2 3 3 5 8 10 12 14 16 17
14 16 16 17 17 18 17 16 16 17 17 16 17 16 17 17 15 14 12 12 11 12 11 10 9 8 7 6 5 4 3 2 0 2 4 5 8 10 12 14 16 18 20
12 14 14 14 11 12 13 13 12 12 12 13 13 12 12 12 12 10 9 8 8 8 8 6 5 4 4 3 2 2 1 2 3 5 7 9 10 12 14 16 17 18 20
11 10 10 10 9 9 9 10 10 10 10 10 9 9 9 8 8 7 6 6 5 4 4 4 3 2 1 1 1 1 2 4 4 6 8 10 12 14 15 17 19 21 21
9 9 8 7 7 7 7 7 7 7 7 7 6 6 6 6 6 6 5 4 2 1 0 1 1 2 3 3 4 5 6 7 8 10 11 12 14 16 18 19 21 23 24
11 10 10 9 8 7 7 7 6 6 6 5 5 6 5 5 5 4 3 4 4 4 5 6 6 7 8 8 9 11 12 13 14 15 16 16 17 18 20 21 23 26 26
14 13 12 12 12 11 11 11 10 9 8 8 7 7 7 7 6 7 7 8 8 9 10 11 12 13 14 14 15 16 18 19 21 21 22 24 25 25 25 26 26 27 29
18 17 17 16 14 14 13 13 13 12 13 12 11 12 12 10 9 13 12 13 14 15 17 18 19 19 19 20 21 22 23 24 27 26 28 29 30 31 30 29 31 31 33
22 21 20 19 18 17 17 17 16 15 16 16 16 17 16 16 16 18 18 18 19 20 25 25 26 25 26 26 27 27 27 29 30 30 32 34 36 36 36 34 35 37 38
25 23 22 22 22 22 22 21 21 20 21 22 21 21 21 20 21 21 22 24 25 26 30 33 33 32 31 31 31 32 33 33 33 35 37 38 39 40 39 39 39 39 41
27 26 26 26 26 26 26 25 25 25 25 26 24 25 26 26 26 26 26 28 31 32 35 37 38 38 38 38 38 38 38 37 38 38 39 41 41 41 41 42 41 40 41
31 30 29 29 29 29 29 30 30 31 31 32 29 29 29 29 30 31 32 35 38 39 40 41 41 42 43 43 44 44 44 44 43 42 41 41 41 40 42 41 40 39 38
34 33 32 33 33 33 33 34 34 35 36 37 37 35 33 33 35 35 36 38 41 44 45 47 47 47 48 47 47 47 48 48 46 46 44 43 40 38 38 37 36 34 35
37 36 36 36 37 37 37 38 39 40 40 41 42 40 40 41 42 41 42 42 44 44 45 45 46 47 47 47 48 48 48 48 46 46 43 40 36 36 34 33 32 33 33
37 37 38 39 39 40 41 41 42 43 44 45 45 44 44 45 45 46 46 46 45 45 44 44 45 44 44 44 43 43 43 45 44 41 40 37 34 33 32 31 30 29 29
33 35 37 37 38 39 40 41 42 43 44 44 44 45 44 45 45 44 44 43 43 43 43 42 42 42 41 40 39 39 40 41 39 37 36 34 32 30 29 29 28 27 27
28 30 31 32 33 33 33 34 36 36 37 38 39 39 40 40 40 40 39 39 38 37 36 36 38 39 39 39 39 38 37 35 33 33 32 31 31 30 28 28 27 26 26
20 22 23 24 26 27 28 28 29 30 31 32 32 33 33 34 34 35 36 35 35 35 34 33 34 35 36 36 34 33 32 31 30 29 29 29 29 28 28 26 26 27 26
13 14 15 17 18 20 21 22 23 24 25 26 28 29 30 32 32 32 32 31 33 33 34 35 35 35 34 32 31 29 28 28 27 26 25 26 26 26 26 27 26 27 27
Wind_Direction
328 317 306 290 251 231 213 223 244 243 235 222 238 222 213 224 213 211 216 217 217 224 227 226 230 228 230 233 233 241 234 242 242 236 226 232 231 230 228 234 238 241 246
343 336 324 284 217 207 205 216 224 223 236 248 235 229 202 202 204 201 207 212 209 208 205 210 223 223 223 227 235 231 232 236 233 232 224 219 220 223 223 224 228 239 247
359 7 11 212 176 182 189 194 202 220 229 220 214 208 199 197 187 182 188 187 187 191 193 191 193 190 206 204 214 217 222 217 209 213 210 204 204 207 211 220 226 235 243
24 37 74 107 140 160 166 168 170 176 181 183 177 171 164 160 158 159 162 165 159 158 154 156 152 155 150 145 145 144 153 164 165 165 178 185 194 199 205 215 230 241 257
64 82 92 102 118 132 143 146 147 151 144 139 137 138 136 134 134 138 143 142 142 146 145 140 134 135 130 129 133 133 132 135 143 151 154 171 184 191 203 218 239 253 267
77 81 91 103 114 115 119 123 127 128 129 131 128 126 124 122 123 125 130 130 132 134 132 131 131 133 130 131 131 128 127 126 141 146 155 171 188 205 229 251 267 275 284
80 83 86 94 103 109 113 116 114 111 110 109 113 118 117 116 114 115 120 125 127 129 129 129 129 126 125 127 126 126 132 140 148 151 165 193 224 246 263 273 280 285 294
99 99 97 95 95 101 103 103 103 102 102 108 110 108 109 111 115 121 126 130 132 128 125 122 124 125 123 120 121 123 125 128 132 149 196 242 270 281 289 295 297 297 299
117 112 109 107 110 109 105 103 110 119 124 125 123 125 126 123 125 127 130 132 131 128 126 125 124 123 122 121 119 115 111 121 34 307 296 285 281 284 290 297 299 303 304
125 120 118 119 119 120 119 119 120 120 121 119 122 124 123 126 127 129 133 132 129 126 124 125 126 123 109 110 121 120 65 352 332 317 313 307 304 304 303 303 300 298 302
149 144 139 135 134 133 130 130 131 134 133 130 130 129 130 129 130 131 129 131 131 134 139 140 131 98 90 42 28 3 340 322 319 312 309 309 307 304 304 303 303 302 301
171 167 160 156 155 154 148 147 147 147 143 141 141 141 143 148 151 155 161 163 167 174 209 254 261 285 294 298 305 311 311 310 309 308 309 311 308 307 304 301 300 298 299
197 193 191 188 184 183 183 183 187 188 184 182 187 192 194 197 202 210 225 235 244 244 252 258 271 276 283 297 301 300 301 304 303 303 301 299 298 299 300 300 301 299 298
213 213 214 212 210 209 209 209 211 213 215 218 223 229 235 238 244 253 258 263 268 271 272 276 278 281 283 281 281 283 287 287 287 289 293 292 292 292 293 292 293 294 295
224 224 225 226 229 230 231 231 231 231 235 239 244 249 256 259 267 264 269 272 273 275 275 274 274 275 274 273 273 272 275 278 282 286 286 287 287 287 290 290 291 291 293
233 236 238 239 239 241 243 246 248 249 255 257 258 261 261 262 262 268 270 272 273 273 273 273 272 272 273 275 274 275 275 277 281 284 284 285 286 287 288 287 286 287 289
241 242 244 246 247 249 251 253 254 254 255 257 259 263 268 269 267 268 271 273 273 274 273 278 279 280 282 282 281 281 281 283 283 282 282 282 282 282 282 282 280 280 282
247 249 250 252 255 257 259 261 263 264 263 264 265 267 268 271 274 276 277 276 272 270 272 276 279 282 284 283 283 283 283 282 281 282 283 283 282 281 280 279 279 280 281
250 252 254 257 260 263 265 267 268 270 271 272 271 266 270 275 276 276 275 271 273 274 275 275 277 279 281 283 285 285 286 286 286 285 284 284 283 281 280 280 280 279 279
252 255 257 259 261 263 266 268 270 272 275 277 279 280 281 279 275 274 274 275 275 276 278 279 282 283 283 284 284 284 284 284 285 286 287 287 284 283 281 281 279 279 279
256 258 260 263 264 267 269 270 273 274 276 278 280 282 284 283 282 281 280 279 278 278 278 279 280 280 280 280 281 282 282 282 283 286 286 285 285 282 281 277 276 276 279
256 259 260 262 266 268 270 273 275 277 278 280 282 284 286 285 285 285 285 284 283 283 282 281 279 278 277 277 278 278 280 281 283 283 283 283 280 278 276 276 277 278 280
256 258 261 263 266 269 271 274 277 279 281 283 285 285 285 286 287 287 287 287 287 288 287 286 286 285 284 283 281 279 278 279 283 284 282 281 280 278 277 276 276 277 277
258 261 264 267 271 274 276 278 280 281 283 285 286 287 289 290 291 292 293 293 292 289 286 284 283 283 284 285 285 284 283 283 281 279 279 276 276 275 273 273 275 277 280
259 263 267 272 274 275 277 280 282 285 287 289 293 295 295 295 295 295 296 297 296 295 294 293 291 289 287 286 285 283 281 279 277 274 270 270 269 269 269 271 274 278 282
269 270 273 278 284 286 288 289 291 293 295 297 299 301 301 301 300 299 300 300 301 300 298 296 295 294 292 289 286 283 280 278 274 270 267 266 267 268 271 275 277 279 282